Regional Weather Roundup
Issued by NWS

Home | Current Version | Previous Version | Text Only | Print | Product List | Glossary On
Versions: 1 2 3 4 5 6 7 8 9 10 11 12 13 14 15 16 17 18 19 20 21 22 23 24 25 26 27 28 29 30 31 32 33 34 35 36 37 38 39 40 41 42 43 44 45 46 47 48 49
000
ASUS46 KPQR 301610
RWROR

OREGON REGIONAL WEATHER ROUNDUP
NATIONAL WEATHER SERVICE PORTLAND OR
900 AM PDT THU JUL 30 2015

NOTE: "FAIR" INDICATES FEW OR NO CLOUDS BELOW 12,000 FEET WITH
NO SIGNIFICANT WEATHER AND/OR OBSTRUCTIONS TO VISIBILITY.

ORZ001>013-301700-
NORTHWEST OREGON


CITY           SKY/WX    TMP DP  RH WIND       PRES   REMARKS
ASTORIA        SUNNY     69  62  78 VRB3      30.04S
NEWPORT        SUNNY     61  54  77 NW5       30.04S HAZE
PORTLAND       SUNNY     74  52  46 VRB3      30.04S
VANCOUVER WA   SUNNY     75  50  41 NW5       30.03S
SCAPPOOSE      SUNNY     79  50  36 N8        30.03S
HILLSBORO      SUNNY     76  49  38 S5        30.03S
AURORA         SUNNY     77  50  38 NE9       30.04R
MCMINNVILLE    SUNNY     74  48  39 CALM      30.03S
SALEM          SUNNY     76  49  38 VRB5      30.02S
CORVALLIS      SUNNY     73  46  38 CALM      30.05R
EUGENE         MOSUNNY   76  49  38 CALM      30.04R
$$

ORZ021-028-301700-
SOUTHWEST OREGON


CITY           SKY/WX    TMP DP  RH WIND       PRES   REMARKS
NORTH BEND     SUNNY     61  55  82 W8        30.01S
BROOKINGS      SUNNY     70  56  61 CALM      30.03R
ROSEBURG       SUNNY     73  51  46 CALM      30.04S HAZE
SEXTON SUMMIT  SUNNY     79  45  29 E6        30.19R
MEDFORD        SUNNY     71  48  43 CALM      30.07S
$$

ORZ014>016-041-301700-
COLUMBIA GORGE


CITY           SKY/WX    TMP DP  RH WIND       PRES   REMARKS
TROUTDALE      SUNNY     73  53  49 CALM      30.02S
THE DALLES     SUNNY     72  41  32 CALM      30.09S
$$

ORZ029>031-041-044-049-050-061>064-502-503-505>511-301700-
EASTERN OREGON


CITY           SKY/WX    TMP DP  RH WIND       PRES   REMARKS
REDMOND        SUNNY     75  32  20 S5        30.21S
BEND           SUNNY     73  34  23 S5        30.23S
PRINEVILLE     SUNNY     73  32  21 VRB5      30.21F
KLAMATH FALLS  SUNNY     73  40  30 N12       30.26R
LAKEVIEW       SUNNY     70  36  28 CALM      30.29S
HERMISTON      SUNNY     74  43  32 VRB3      30.10S
PENDLETON      SUNNY     77  37  23 S3        30.12S
JOHN DAY       SUNNY     73  36  25 E7        30.26S
MEACHAM        SUNNY     77  42  28 CALM      30.26R
LA GRANDE      SUNNY     66  37  34 CALM      30.25S
BAKER CITY     NOT AVBL
BURNS          SUNNY     75  29  18 CALM      30.30R
ROME             N/A     75  28  17 N5        30.29S
ONTARIO        SUNNY     71  44  37 CALM      30.24
$$



USA.gov is the U.S. government's official web portal to all federal, state and local government web resources and services.